[[{"header":{"parameterUnit":"m.s-1","parameterCategory":1,"la1":30.2991,"la2":30.254,"lo1":-89.0895,"lo2":-89.0444,"dy":0.0017,"dx":0.0017,"nx":28,"ny":28,"refTime":"2025-06-05T21:00:00:Z","depth":0,"parameterNumber":2,"parameterNumberName":"U-component_of_WINDS"},"data":[0,0,0,0,0,0,0,0,0,0,0,0,0,0,0,0,0,0,0,0,0,0,0,0,0,0,0,0,0,0,0,0,0,0,0,0,0,0,0,0,0,0,0,0,0,0,0,0,0,0,0,0,0,0,0,0,0,0,1.0515,1.0516,0,1.062,1.0622,1.0623,1.0704,1.0705,1.0706,1.0706,1.0815,1.0817,1.0819,0,0,0,0,0,0,0,0,0,0,0,0,0,1.0388,1.0389,1.0515,1.0516,1.0518,1.062,1.0622,1.0623,1.0704,1.0705,1.0706,1.0707,1.0814,1.0817,1.082,0,0,0,0,0,0,0,0,0,0,0,0,0,1.0463,1.039,1.0515,1.057,1.0576,1.062,1.0622,1.0623,1.0704,1.0705,1.0706,1.0707,1.0814,1.0817,1.082,1.0817,0,0,1.083,1.0831,0,0,0,0,0,0,0,0,1.0458,1.0467,1.0561,1.0567,1.0573,1.065,1.0617,1.0688,1.0703,1.0655,1.0706,1.0708,1.0759,1.0767,1.0785,1.0822,1.0827,1.083,1.0832,1.0834,1.0835,0,0,0,0,0,0,0,1.0453,1.0463,1.0557,1.0562,1.057,1.0591,1.0603,1.0631,1.07,1.066,1.0666,1.0677,1.0763,1.0781,1.0788,1.0829,1.083,1.0833,1.0835,1.0836,1.0873,1.0872,0,0,0,0,0,0,1.0439,1.0458,1.0554,1.056,1.0518,1.0593,1.0606,1.0624,1.07,1.0712,1.0676,1.068,1.0775,1.0784,1.0792,1.0796,1.0834,1.0837,1.0839,1.0874,1.0873,1.0872,0,0,0,0,0,0,1.0436,1.0447,1.0549,1.0511,1.0526,1.0593,1.0614,1.0626,1.0644,1.0712,1.0725,1.0681,1.0776,1.0787,1.0811,1.08,1.0838,1.0841,1.0875,1.0874,1.0872,1.0801,0,0,0,0,0,0,1.0432,1.0445,1.0443,1.051,1.0527,1.0565,1.0613,1.0627,1.0649,1.0656,1.0721,1.0732,1.0778,1.0806,1.0814,1.0806,1.0844,1.0877,1.0875,1.0873,1.0805,1.0798,1.0791,0,0,0,0,0,1.0427,1.0419,1.0443,1.0454,1.0527,1.0564,1.0574,1.0627,1.0648,1.0648,1.0692,1.073,1.08,1.0807,1.0818,1.081,1.0877,1.0875,1.0873,1.0808,1.0799,1.0791,0,0,0,0,0,0,1.0348,1.0428,1.0456,1.0469,1.0509,1.0578,1.0579,1.0615,1.065,1.0655,1.0719,1.0733,1.0751,1.0783,1.0789,1.0813,1.0844,1.0844,1.0791,1.0783,1.0776,1.0768,1.0847,0,0,0,0,0,1.0332,1.0356,1.0425,1.043,1.0449,1.051,1.0528,1.0566,1.061,1.0628,1.0673,1.0716,1.0748,1.0767,1.08,1.081,1.0827,1.081,1.0804,1.0798,1.0797,1.0807,1.0801,1.0865,1.0865,1.0865,0,0,1.03,1.0347,1.0357,1.0415,1.0451,1.0475,1.0524,1.0546,1.0565,1.0631,1.0657,1.0692,1.0744,1.0761,1.0772,1.0789,1.0783,1.0795,1.0789,1.0792,1.0804,1.0798,1.0793,1.0863,1.0863,1.0864,0,0,1.0253,1.029,1.0299,1.0334,1.0388,1.043,1.0432,1.0496,1.0522,1.0549,1.06,1.0624,1.0677,1.0713,1.0737,1.0708,1.0745,1.0717,1.0681,1.0691,1.0686,1.0682,1.0673,1.0668,1.0716,1.0716,1.0715,0,1.0205,1.0242,1.0299,1.032,1.0345,1.0407,1.0418,1.0449,1.0511,1.0527,1.0546,1.0616,1.0655,1.0683,1.0676,1.0693,1.07,1.0709,1.0682,1.0678,1.0675,1.0667,1.0664,1.0712,1.0712,1.0713,1.0713,0,1.0183,1.0208,1.0209,1.0268,1.0294,1.0309,1.0369,1.0389,1.0424,1.0465,1.0493,1.0542,1.0588,1.0597,1.0632,1.0631,1.0641,1.0669,1.0702,1.0665,1.0658,1.0656,1.0707,1.0708,1.0709,1.071,0,0,1.0086,1.0179,1.0179,1.0207,1.0273,1.0294,1.0314,1.0358,1.0374,1.0416,1.0435,1.048,1.0508,1.0536,1.0576,1.0584,1.056,1.0613,1.0615,1.0602,1.0565,1.0543,1.0538,1.0586,1.0585,1.0585,1.0561,0,1.005,1.0088,1.0142,1.0162,1.0188,1.0249,1.0266,1.0309,1.0348,1.0376,1.042,1.0451,1.0485,1.0503,1.0514,1.056,1.0554,1.0563,1.0605,1.0606,1.059,1.0535,1.0511,1.0486,1.0559,1.0558,1.0558,0,1.0012,1.0052,1.0075,1.0141,1.0154,1.0168,1.0215,1.0241,1.0292,1.032,1.0353,1.0397,1.0423,1.0453,1.049,1.0495,1.0516,1.0542,1.0543,1.0548,1.0579,1.054,1.0479,1.0475,1.0555,1.0555,1.0555,0,0.9942,1.0,1.0023,1.0045,1.0122,1.0132,1.0165,1.0217,1.0241,1.0283,1.03,1.0343,1.0367,1.0401,1.0456,1.0472,1.0489,1.0522,1.0514,1.0512,1.0514,1.0513,1.0456,1.0526,1.0526,1.0527,1.0527,0,0.9896,0.9908,0.9992,1.0005,1.0022,1.0084,1.0099,1.0138,1.0185,1.0208,1.0264,1.0284,1.0356,1.0386,1.043,1.0455,1.0465,1.049,1.0501,1.0485,1.0482,1.0499,1.0503,1.0526,1.0526,1.0526,1.0526,0,0.9819,0.9875,0.9904,0.9976,0.9995,1.0004,1.0066,1.0083,1.0126,1.0155,1.0166,1.0234,1.0272,1.0331,1.0387,1.0417,1.0435,1.0454,1.0418,1.0425,1.0414,1.0414,1.0365,1.0363,1.0434,1.0433,1.0433,0,0.9785,0.9797,0.9871,0.989,0.9922,0.9952,0.9978,1.0041,1.0066,1.0127,1.0137,1.018,1.0217,1.0277,1.0332,1.0376,1.0396,1.0376,1.0403,1.0387,1.0397,1.0396,1.0398,1.0369,1.0368,1.0368,1.0367,0,0.9721,0.975,0.9784,0.983,0.986,0.9898,0.994,0.9953,1.0026,1.0051,1.0092,1.0121,1.0179,1.0222,1.0274,1.0309,1.035,1.0358,1.0359,1.0342,1.0321,1.0334,1.0401,1.0359,1.036,1.036,1.0361,1.0361,0.9666,0.968,0.9735,0.9773,0.9811,0.9849,0.9869,0.9916,0.9951,1.0003,1.0039,1.0077,1.0132,1.0206,1.0239,1.0272,1.0289,1.029,1.029,1.0289,1.0284,1.0316,1.0281,1.0282,1.0282,1.0282,1.0283,0,0.9606,0.9645,0.9679,0.9736,0.9767,0.9804,0.9853,0.9876,0.9909,0.9956,0.9993,1.0041,1.0083,1.0143,1.019,1.0205,1.0225,1.0215,1.0215,1.0223,1.0265,1.026,1.0198,1.0198,1.0198,1.0198,1.0198,1.0198,0.9578,0.9604,0.9639,0.9685,0.9725,0.9764,0.9789,0.9825,0.9863,0.9914,0.995,0.9989,1.0042,1.0094,1.0135,1.0152,1.0167,1.0151,1.0174,1.0212,1.022,1.0227,1.0223,1.0154,1.0154,1.013,1.0129,1.0129]},{"header":{"parameterUnit":"m.s-1","parameterCategory":1,"la1":30.2991,"la2":30.254,"lo1":-89.0895,"lo2":-89.0444,"dy":0.0017,"dx":0.0017,"nx":28,"ny":28,"refTime":"2025-06-05T21:00:00:Z","depth":0,"parameterNumber":3,"parameterNumberName":"V-component_of_WINDS"},"data":[0,0,0,0,0,0,0,0,0,0,0,0,0,0,0,0,0,0,0,0,0,0,0,0,0,0,0,0,0,0,0,0,0,0,0,0,0,0,0,0,0,0,0,0,0,0,0,0,0,0,0,0,0,0,0,0,0,0,3.8095,3.8095,0,3.8108,3.8108,3.8108,3.8107,3.8107,3.8107,3.8107,3.8119,3.8119,3.812,0,0,0,0,0,0,0,0,0,0,0,0,0,3.8066,3.8067,3.8095,3.8095,3.8095,3.8108,3.8108,3.8108,3.8107,3.8107,3.8107,3.8107,3.8118,3.8119,3.812,0,0,0,0,0,0,0,0,0,0,0,0,0,3.8079,3.8067,3.8095,3.8096,3.8096,3.8108,3.8108,3.8108,3.8107,3.8107,3.8107,3.8107,3.8118,3.8119,3.812,3.813,0,0,3.8122,3.8122,0,0,0,0,0,0,0,0,3.8078,3.808,3.8096,3.8096,3.8096,3.8106,3.8103,3.8116,3.8108,3.8103,3.8107,3.8106,3.8114,3.8116,3.8119,3.8131,3.8131,3.8122,3.8123,3.8123,3.8123,0,0,0,0,0,0,0,3.8077,3.8079,3.81,3.8096,3.8096,3.8095,3.8097,3.8105,3.811,3.8104,3.8104,3.8105,3.8115,3.8118,3.8119,3.8131,3.8122,3.8123,3.8123,3.8123,3.8152,3.8153,0,0,0,0,0,0,3.8077,3.8079,3.81,3.81,3.8087,3.8096,3.8098,3.8103,3.811,3.8111,3.8105,3.8105,3.8117,3.8118,3.8119,3.8132,3.8123,3.8124,3.8124,3.8152,3.8152,3.8153,0,0,0,0,0,0,3.8076,3.8078,3.8099,3.809,3.8092,3.8097,3.8103,3.8103,3.8107,3.8112,3.8112,3.8108,3.8117,3.8118,3.8128,3.8132,3.8124,3.8125,3.8152,3.8152,3.8153,3.8157,0,0,0,0,0,0,3.8075,3.8078,3.8083,3.809,3.8093,3.8108,3.8103,3.8104,3.8108,3.8108,3.8114,3.8115,3.8116,3.8126,3.8128,3.8133,3.8125,3.8151,3.8152,3.8152,3.8157,3.8158,3.8159,0,0,0,0,0,3.8074,3.8083,3.8083,3.8085,3.8099,3.8108,3.811,3.8112,3.8109,3.8113,3.8116,3.8115,3.8131,3.8127,3.8129,3.8135,3.8151,3.8152,3.8152,3.8156,3.8157,3.8159,0,0,0,0,0,0,3.8076,3.8084,3.8084,3.8096,3.8101,3.8108,3.8113,3.8113,3.8119,3.8118,3.812,3.8122,3.8131,3.8134,3.8129,3.8145,3.8141,3.8142,3.8143,3.8144,3.8145,3.8144,3.8126,0,0,0,0,0,3.8078,3.8085,3.8092,3.8101,3.8104,3.8108,3.8112,3.8114,3.8119,3.8121,3.8125,3.813,3.8136,3.814,3.8146,3.8157,3.8158,3.8161,3.8162,3.8163,3.8164,3.817,3.8171,3.8155,3.8155,3.8155,0,0,3.8081,3.8087,3.8091,3.8102,3.8106,3.8114,3.811,3.8118,3.8123,3.8122,3.8131,3.8134,3.814,3.815,3.8154,3.8152,3.8169,3.8164,3.8165,3.8165,3.8171,3.8172,3.8173,3.8156,3.8155,3.8155,0,0,3.8092,3.8097,3.8105,3.811,3.8117,3.812,3.8122,3.8128,3.813,3.814,3.8139,3.8145,3.8156,3.816,3.8163,3.8175,3.8174,3.8177,3.8182,3.8187,3.8189,3.819,3.8194,3.8195,3.8178,3.8178,3.8178,0,3.8095,3.8107,3.811,3.8118,3.8122,3.8122,3.813,3.8134,3.8143,3.8145,3.8143,3.8157,3.8161,3.8171,3.8174,3.8177,3.8179,3.8176,3.8188,3.819,3.8191,3.8194,3.8196,3.8178,3.8178,3.8178,3.8178,0,3.8111,3.8119,3.8125,3.8133,3.8138,3.8146,3.815,3.8154,3.8155,3.8158,3.8167,3.8171,3.8178,3.8181,3.8181,3.8191,3.819,3.8188,3.8184,3.8192,3.8196,3.8198,3.8178,3.8178,3.8178,3.8178,0,0,3.8123,3.8133,3.8135,3.8139,3.8147,3.8152,3.816,3.8167,3.8171,3.8177,3.8183,3.8192,3.8191,3.8194,3.8195,3.82,3.8209,3.8197,3.8197,3.8199,3.822,3.8222,3.8223,3.8208,3.8208,3.8209,3.822,0,3.8134,3.8149,3.8151,3.8164,3.8171,3.8171,3.8177,3.8182,3.8185,3.8191,3.8193,3.82,3.8197,3.8199,3.8204,3.8207,3.8213,3.8206,3.8213,3.8214,3.8212,3.8225,3.8227,3.8237,3.8221,3.8221,3.8221,0,3.8149,3.8156,3.8169,3.8176,3.8179,3.8185,3.8192,3.8197,3.8203,3.8204,3.8209,3.8209,3.8216,3.8212,3.8222,3.8217,3.822,3.8222,3.8222,3.8223,3.8218,3.8226,3.824,3.8242,3.8224,3.8224,3.8223,0,3.8156,3.8168,3.8178,3.8181,3.8189,3.8193,3.8197,3.8202,3.8206,3.8212,3.8215,3.8221,3.8224,3.8229,3.823,3.8227,3.824,3.8236,3.8241,3.8241,3.8244,3.8244,3.8259,3.8246,3.8246,3.8246,3.8246,0,3.8169,3.8177,3.8182,3.8187,3.8196,3.8199,3.8207,3.821,3.8215,3.8221,3.8221,3.8227,3.8229,3.8234,3.8235,3.8243,3.8245,3.8246,3.8246,3.8246,3.8246,3.8248,3.8248,3.8247,3.8246,3.8246,3.8246,0,3.8178,3.8182,3.8192,3.8199,3.8201,3.8207,3.8213,3.8218,3.822,3.8228,3.823,3.8234,3.824,3.8242,3.825,3.8251,3.826,3.826,3.8259,3.8259,3.8264,3.8264,3.8281,3.8284,3.8269,3.8269,3.8269,0,3.8186,3.8192,3.82,3.8204,3.8208,3.8215,3.8219,3.8222,3.8226,3.8233,3.8237,3.8244,3.825,3.826,3.8263,3.8269,3.8269,3.8274,3.827,3.8269,3.8269,3.8269,3.8269,3.8275,3.8275,3.8276,3.8276,0,3.8199,3.8201,3.8207,3.8215,3.822,3.8226,3.8231,3.8235,3.8238,3.8243,3.825,3.8254,3.8262,3.8269,3.8275,3.8278,3.8277,3.8277,3.8279,3.8279,3.8278,3.8279,3.8261,3.8277,3.8277,3.8277,3.8277,3.8277,3.8208,3.8214,3.822,3.8228,3.8232,3.8237,3.8243,3.8246,3.8252,3.826,3.826,3.8268,3.8273,3.8281,3.8284,3.8289,3.8288,3.829,3.8291,3.8291,3.8292,3.8277,3.829,3.829,3.829,3.829,3.829,0,3.8222,3.8226,3.8232,3.824,3.8246,3.8246,3.8251,3.8256,3.8263,3.8268,3.8274,3.8282,3.8288,3.8291,3.8298,3.8301,3.8301,3.8303,3.8303,3.8303,3.8293,3.8291,3.8303,3.8303,3.8303,3.8303,3.8303,3.8303,3.8229,3.8239,3.8241,3.8253,3.8256,3.8264,3.8268,3.8272,3.8276,3.8285,3.8291,3.8293,3.8298,3.8304,3.831,3.831,3.8313,3.8315,3.8315,3.8305,3.8304,3.8303,3.8301,3.8315,3.8315,3.8325,3.8325,3.8326]}]]